CAPE
0 0 0 0 0 0 0 0 0 0 0 0 0 0 0 0 0 0 0 0 0 0 0 0 0 0 0 0 0 0 0 0 0 0 0 0 0 0 0 0 0 0 0 0
0 0 0 0 0 0 0 0 0 0 0 0 0 0 0 0 0 0 0 0 0 0 0 0 0 0 0 0 0 0 0 0 0 0 0 0 0 0 0 0 0 0 0 0
0 0 0 0 0 0 0 0 0 0 0 0 0 0 0 0 0 0 0 0 0 0 0 0 0 0 0 0 0 0 0 0 0 0 0 0 0 0 0 0 0 0 0 0
0 0 0 0 0 0 0 0 0 0 0 0 0 0 0 0 0 0 0 0 0 0 0 0 0 0 0 0 0 0 0 0 0 0 0 0 0 0 0 0 0 0 0 0
0 0 0 0 0 0 0 0 0 0 0 0 0 0 0 0 0 0 0 0 0 0 0 0 0 0 0 0 0 0 0 0 0 0 0 0 0 0 0 0 0 0 0 0
0 0 0 0 0 0 0 0 0 0 0 0 0 0 0 0 0 0 0 0 0 0 0 0 0 0 0 0 0 0 0 0 0 0 0 0 0 0 0 0 0 0 0 0
0 0 0 0 0 0 0 0 0 0 0 0 0 0 0 0 0 0 0 0 0 0 0 0 0 0 0 0 0 0 0 0 0 0 0 0 0 0 0 0 0 0 0 0
0 0 0 0 0 0 0 0 0 0 0 0 0 0 0 0 0 0 0 0 0 0 0 0 0 0 0 0 0 0 0 0 0 0 0 0 0 0 0 0 0 0 0 0
0 0 0 0 0 0 0 0 0 0 0 0 0 0 0 0 0 0 0 0 0 0 0 0 0 0 0 0 0 0 0 0 0 0 0 0 0 0 0 0 0 0 0 0
0 0 0 0 0 0 0 0 0 0 0 0 0 0 0 0 0 0 0 0 0 0 0 0 0 0 0 0 0 0 0 0 0 0 0 0 0 0 0 0 0 0 0 0
0 0 0 0 0 0 0 0 0 0 0 0 0 0 0 0 0 0 0 0 0 0 0 0 0 0 0 0 0 0 0 0 0 0 0 0 0 0 0 0 0 0 0 0
0 29 4 0 0 0 0 0 0 4 0 0 0 0 0 0 0 0 0 0 0 0 0 0 0 0 0 0 0 0 0 0 0 0 0 0 0 0 0 0 0 0 0 0
1 31 33 0 0 0 0 0 0 0 1 1 3 0 0 0 0 0 0 0 0 0 0 0 0 0 0 0 0 0 0 0 0 0 0 0 0 0 0 0 0 0 0 0
4 1 1 1 0 1 0 0 0 0 0 0 0 0 0 0 0 0 0 0 0 0 0 0 0 0 0 0 0 0 0 0 0 0 0 0 0 0 0 0 0 0 0 0
0 1 0 1 1 2 0 0 0 0 1 0 0 0 0 0 0 0 0 0 0 0 0 0 0 0 0 0 0 0 0 0 0 0 0 0 0 0 0 0 0 0 0 0
2 1 0 0 0 0 0 0 0 0 0 0 0 0 0 0 0 0 0 0 0 0 0 0 0 0 0 0 0 0 0 0 0 0 0 0 0 0 0 0 0 0 0 0
0 0 0 0 0 0 0 0 0 0 0 0 0 0 0 0 0 0 0 0 0 0 0 0 0 0 0 0 0 0 0 0 0 0 0 0 0 0 0 0 0 0 0 0
0 0 1 0 0 0 0 0 0 0 0 0 0 0 0 0 0 0 0 0 0 0 0 0 0 0 0 0 0 0 0 0 0 0 0 0 0 0 0 0 0 0 0 0
0 0 0 0 0 0 0 0 0 0 0 0 0 0 0 0 0 0 0 0 0 0 0 0 0 0 0 0 0 0 0 0 0 0 0 0 0 0 0 0 0 0 0 0
0 0 1 0 0 0 0 0 0 0 0 0 0 0 0 0 0 0 0 0 0 0 0 0 0 0 0 0 0 0 0 0 0 0 0 0 0 0 0 0 0 0 0 0
0 0 0 0 0 0 0 0 0 0 0 0 0 0 0 0 0 0 0 0 0 0 0 0 0 0 0 0 0 0 0 0 0 0 0 0 0 0 0 0 0 0 0 0
0 0 0 0 0 0 0 0 0 0 0 0 0 0 0 0 0 0 0 0 0 0 0 0 0 0 0 0 0 0 0 0 0 0 0 0 0 0 0 0 0 0 0 0
0 0 0 0 0 0 0 0 0 0 0 0 0 0 0 0 0 0 0 0 0 0 0 0 0 0 0 0 0 0 0 0 0 0 0 0 0 0 0 0 0 0 0 0
0 0 0 0 0 0 0 0 0 0 0 0 0 0 0 0 0 0 0 0 0 0 0 0 0 0 0 0 0 0 0 0 0 0 0 0 0 1 1 2 2 2 1 1
0 0 0 0 0 0 0 0 0 0 0 0 0 0 0 0 0 0 0 0 0 0 0 0 0 0 0 0 0 0 0 0 0 0 1 2 3 2 2 4 4 5 4 3
0 0 0 0 0 0 0 0 0 0 0 0 0 0 0 0 0 0 0 0 0 0 0 0 0 0 0 0 0 0 0 0 0 0 0 1 1 2 3 3 3 0 0 0
CIN
0 0 0 0 0 0 0 0 0 0 0 0 0 0 0 0 0 0 0 0 0 0 0 0 0 0 0 0 0 0 0 0 0 0 0 0 0 0 0 0 0 0 0 0
0 0 0 0 0 0 0 0 0 0 0 0 0 0 0 0 0 0 0 0 0 0 0 0 0 0 0 0 0 0 0 0 0 0 0 0 0 0 0 0 0 0 0 0
0 0 0 0 0 0 0 0 0 0 0 0 0 0 0 0 0 0 0 0 0 0 0 0 0 0 0 0 0 0 0 0 0 0 0 0 0 0 0 0 0 0 0 0
0 0 0 0 0 0 0 0 0 0 0 0 0 0 0 0 0 0 0 0 0 0 0 0 0 0 0 0 0 0 0 0 0 0 0 0 0 0 0 0 0 0 0 0
0 0 0 0 0 0 0 0 0 0 0 0 0 0 0 0 0 0 0 0 0 0 0 0 0 0 0 0 0 0 0 0 0 0 0 0 0 0 0 0 0 0 0 0
0 0 0 0 0 0 0 0 0 0 0 0 0 0 0 0 0 0 0 0 0 0 0 0 0 0 0 0 0 0 0 0 0 0 0 0 0 0 0 0 0 0 0 0
0 0 0 0 0 0 0 0 0 0 0 0 0 0 0 0 0 0 0 0 0 0 0 0 0 0 0 0 0 0 0 0 0 0 0 0 0 0 0 0 0 0 0 0
0 0 0 0 0 0 0 0 0 0 -1 0 0 0 0 0 0 0 0 0 0 0 0 0 0 0 0 0 0 0 0 0 0 0 0 0 0 0 0 0 0 0 0 0
0 0 0 0 0 0 0 0 0 0 0 0 0 0 0 0 0 0 0 0 0 0 0 0 0 0 0 0 0 0 0 0 0 0 0 0 0 0 0 0 0 0 0 0
0 0 0 0 0 0 0 0 0 0 0 0 0 0 0 0 0 0 0 0 0 0 0 0 0 0 0 0 0 0 0 0 0 0 0 0 0 0 0 0 0 0 0 0
0 0 0 0 0 0 0 0 0 0 0 0 0 0 0 0 0 0 0 0 0 0 0 0 0 0 0 0 0 0 0 0 0 0 0 0 0 0 0 0 0 0 0 0
-1 -2 -3 0 0 0 0 -1 0 -21 0 0 0 0 0 0 0 0 0 0 0 0 0 0 0 0 0 0 0 0 0 0 0 0 0 0 0 0 0 0 0 0 0 0
-7 -1 -4 -5 0 0 0 0 0 0 -8 -5 -1 -1 0 0 0 0 0 0 0 0 0 0 0 0 0 0 0 0 0 0 0 0 0 0 0 0 0 0 0 0 0 0
-13 -15 -4 -3 -12 0 -1 0 0 0 0 0 0 0 0 0 0 0 0 0 0 0 0 0 0 0 0 0 0 0 0 0 0 0 0 0 0 0 0 0 0 0 0 0
-1 -1 0 0 -1 -1 0 0 0 0 0 0 0 0 0 0 0 0 0 0 0 0 0 0 0 0 0 0 0 0 0 0 0 0 0 0 0 0 0 0 0 0 0 0
0 0 0 0 0 0 0 0 0 0 0 0 0 0 0 0 0 0 0 0 0 0 0 0 0 0 0 0 0 0 0 0 0 0 0 0 0 0 0 0 0 0 0 0
0 0 -4 0 0 0 0 0 0 0 0 0 0 0 0 0 0 0 0 0 0 0 0 0 0 0 0 0 0 0 0 0 0 0 0 0 0 0 0 0 0 0 0 0
0 0 0 0 0 0 0 0 0 0 0 0 0 0 0 0 0 0 0 0 0 0 0 0 0 0 0 0 0 0 0 0 0 0 0 0 0 0 0 0 0 0 0 0
0 0 0 0 0 0 0 0 0 0 0 0 0 0 0 0 0 0 0 0 0 0 0 0 0 0 0 0 0 0 0 0 0 0 0 0 0 0 0 0 0 0 0 0
0 0 -1 0 0 0 0 0 0 0 0 0 0 0 0 0 0 0 0 0 0 0 0 0 0 0 0 0 0 0 0 0 0 0 0 0 0 0 0 0 0 0 0 0
0 0 0 0 -1 -1 0 0 0 0 0 0 0 0 0 0 0 0 0 0 0 0 0 0 0 0 0 0 0 0 0 0 0 0 0 0 0 0 0 0 0 0 0 0
0 0 0 0 0 0 0 0 0 0 0 0 0 0 0 0 0 0 0 0 0 0 0 0 0 0 0 0 0 0 0 0 0 0 0 0 0 0 0 0 0 0 0 0
0 0 0 0 0 0 0 0 0 0 0 0 0 0 0 0 0 0 0 0 0 0 0 0 0 0 0 0 0 0 0 0 0 0 0 0 0 0 0 0 0 0 0 0
0 0 0 0 0 0 0 0 0 0 0 0 0 0 0 0 0 0 0 0 0 0 0 0 0 0 0 0 0 0 0 0 0 0 0 0 0 0 0 0 0 0 0 0
0 0 0 0 0 0 0 0 0 0 0 0 0 0 0 0 0 0 0 0 0 0 0 0 0 0 0 0 0 0 0 0 0 0 0 0 0 0 0 0 0 0 0 0
0 0 0 0 0 0 0 0 -2 0 0 0 0 0 0 0 0 0 0 0 0 0 0 0 0 0 0 0 0 0 0 0 0 0 0 0 0 0 0 0 0 0 0 0
Wind_Speed
23 25 26 25 24 27 35 36 42 40 37 44 41 47 48 45 50 45 48 40 34 29 29 28 27 25 25 24 23 22 21 21 19 20 21 22 23 24 23 22 21 20 19 19
28 32 29 31 30 31 34 40 46 48 38 38 46 55 55 35 28 33 34 32 29 24 23 20 20 21 22 23 23 23 22 21 18 19 20 21 25 26 26 25 24 23 22 22
34 35 31 28 31 36 37 41 47 49 46 43 46 47 31 30 29 34 32 30 23 16 15 18 20 22 24 25 27 27 26 23 21 20 21 22 27 28 28 28 29 28 27 25
34 31 31 31 34 33 45 35 40 41 39 42 36 49 44 34 34 32 24 17 11 14 17 19 21 22 25 28 30 30 29 27 24 21 21 22 25 27 28 27 28 29 29 28
31 32 31 32 33 29 36 34 36 37 36 40 37 41 41 32 27 19 16 13 13 20 19 21 23 25 28 33 33 32 31 28 27 25 24 27 29 29 29 30 28 25 26 28
30 27 29 30 29 28 30 35 36 35 35 44 40 34 35 27 16 20 19 16 20 21 20 23 26 29 31 33 32 32 31 31 30 27 27 26 29 31 31 30 29 28 28 28
42 39 31 29 33 29 30 36 43 42 39 46 29 37 37 28 28 24 20 20 20 22 26 31 32 33 34 33 33 32 34 34 33 32 31 32 32 31 31 32 31 31 30 30
48 56 31 23 27 31 31 30 36 46 50 53 46 47 41 26 20 21 27 30 30 30 29 30 31 31 31 32 34 37 38 37 37 36 36 34 33 33 34 33 32 31 32 34
41 44 29 28 28 27 31 35 30 39 43 50 49 46 36 30 30 29 27 27 27 28 29 31 31 32 34 37 39 41 40 38 37 37 38 37 36 35 35 36 34 34 34 35
31 42 32 29 28 28 33 32 43 41 50 54 52 48 46 34 29 26 28 30 31 32 33 35 37 39 40 41 40 39 38 38 38 38 37 38 39 39 38 38 37 37 37 34
29 38 49 40 43 47 40 43 40 39 39 47 49 51 32 35 34 38 39 39 39 40 41 41 41 41 40 40 40 40 41 41 41 41 39 38 38 38 38 38 39 40 41 40
35 42 54 57 50 44 45 44 39 47 52 52 59 64 51 42 38 39 41 42 40 40 41 41 41 41 41 42 41 42 42 42 42 42 41 41 41 41 41 42 42 43 43 42
33 40 51 51 45 37 40 40 41 47 52 62 66 61 31 30 33 38 42 41 39 39 39 40 40 41 42 43 43 43 42 42 42 43 42 43 43 43 43 44 44 44 45 44
33 39 46 55 50 47 47 41 39 39 45 47 45 43 38 41 49 44 40 40 40 40 41 42 41 41 42 42 43 43 43 42 44 44 45 45 45 44 44 45 46 47 47 47
33 49 49 52 51 50 53 54 54 56 55 60 64 60 57 55 48 43 40 40 40 40 41 42 43 44 44 44 44 45 45 45 45 47 47 48 46 46 47 48 48 48 48 48
34 49 47 54 49 48 52 51 52 53 55 57 57 61 50 41 39 39 40 40 41 41 43 44 44 45 45 46 47 47 47 48 48 49 50 51 51 50 50 51 52 51 50 49
40 45 49 61 51 50 61 55 55 57 57 57 61 51 38 39 40 40 41 43 44 44 46 47 46 47 47 48 48 49 49 49 51 51 51 52 53 54 54 55 55 54 55 52
45 47 47 59 53 70 58 48 45 49 46 38 36 34 34 38 40 42 41 44 46 44 47 48 48 49 49 50 50 50 50 51 52 54 55 55 55 57 57 58 59 59 58 56
36 42 47 53 56 58 57 45 43 44 48 34 32 31 36 40 42 48 42 43 46 44 46 47 48 50 51 51 51 53 54 55 55 55 55 55 56 58 59 61 61 60 60 60
31 31 38 42 52 58 44 34 28 30 50 29 28 35 42 40 50 52 48 46 46 43 43 46 48 50 52 53 52 53 55 55 56 56 57 56 57 58 61 62 63 62 61 63
38 36 40 41 46 44 34 30 26 43 45 23 32 41 42 45 45 46 45 44 44 43 45 44 48 52 53 53 54 58 59 59 57 56 58 59 59 60 61 63 63 64 65 65
38 38 37 34 40 47 27 24 32 30 31 42 45 44 45 43 40 40 42 44 43 42 45 48 51 54 54 53 55 60 63 61 60 60 62 63 64 64 64 65 66 65 64 66
39 32 36 33 35 29 24 30 34 43 46 44 42 39 38 38 39 39 41 41 40 42 45 47 50 54 55 55 55 61 64 64 66 67 68 68 66 66 66 67 67 66 64 64
37 33 37 38 36 37 39 38 38 37 36 36 34 36 37 38 36 38 39 39 42 44 47 48 52 55 58 57 59 60 64 65 67 69 69 68 68 67 65 63 63 64 64 63
32 32 34 39 37 42 38 35 34 33 33 32 31 32 34 34 36 37 39 42 43 45 46 47 51 55 59 60 61 60 61 62 64 64 64 64 62 61 60 57 57 57 56 56
30 33 37 41 40 39 43 38 36 33 32 29 30 32 31 32 35 38 40 42 43 45 47 50 52 54 56 57 58 59 56 56 58 58 56 53 53 53 52 53 55 51 56 58
Wind_Direction
301 295 292 294 291 295 303 304 303 307 311 306 305 294 306 310 299 269 290 299 305 311 316 319 317 319 318 314 311 307 301 294 286 279 272 266 260 265 258 256 254 251 251 247
299 291 296 300 299 298 299 300 301 303 310 309 306 298 299 313 319 319 302 311 312 321 325 335 341 343 338 336 329 321 313 307 299 293 286 279 279 274 272 269 266 259 257 255
289 297 303 296 296 298 296 297 300 301 307 306 305 304 317 321 320 320 316 311 315 333 348 339 339 339 344 339 337 336 327 320 309 301 297 292 288 282 280 275 273 269 264 260
294 300 298 297 296 297 295 302 300 304 308 306 312 299 307 312 314 322 336 348 14 1 342 339 339 337 338 339 336 331 334 330 318 310 303 296 293 288 284 280 278 275 268 263
300 303 303 299 299 302 299 308 303 302 304 304 304 303 308 316 316 334 351 6 360 342 344 336 334 333 332 334 335 332 339 338 330 320 309 302 296 295 292 289 283 277 276 269
300 309 305 305 306 303 306 305 304 302 301 295 300 297 305 319 319 334 331 339 338 340 339 338 334 332 333 334 333 333 335 336 334 332 324 313 304 298 294 292 288 285 282 277
302 302 303 303 300 304 302 302 299 295 293 292 307 299 295 302 306 314 321 322 328 330 329 328 328 328 328 330 333 334 334 332 332 330 327 321 312 305 299 295 291 288 286 283
298 296 304 304 300 302 299 297 293 294 292 291 297 288 294 301 313 315 312 312 316 320 324 327 330 331 332 332 333 332 331 329 330 328 326 323 318 311 305 301 296 293 289 286
298 295 308 302 305 306 303 293 297 293 293 291 289 289 293 297 299 304 309 317 319 321 323 326 329 331 331 329 329 327 326 326 326 325 325 325 321 315 310 305 301 297 294 290
303 296 299 303 304 298 295 299 293 294 290 287 285 286 287 292 293 303 307 309 314 317 320 319 319 321 321 323 325 327 327 326 325 325 324 321 320 319 315 309 305 300 296 293
302 297 295 297 293 293 292 289 288 290 287 287 288 285 297 295 293 296 299 302 306 310 312 313 315 318 320 321 322 322 323 322 322 321 320 320 320 318 317 313 308 302 298 294
301 299 292 291 294 295 291 288 284 283 286 283 283 281 291 293 295 297 299 302 306 309 311 314 316 316 316 318 321 321 320 321 321 320 319 316 314 314 312 311 312 308 301 295
311 301 298 297 297 300 293 293 289 287 286 281 283 286 297 297 300 302 302 303 306 308 312 313 314 315 316 317 316 318 319 319 320 319 318 317 315 313 311 310 308 308 306 300
309 298 292 292 297 301 297 299 300 297 292 295 291 297 299 298 298 304 303 303 303 306 310 312 313 314 315 316 316 316 316 319 319 319 317 316 316 314 312 309 307 306 304 301
304 294 295 294 295 294 292 291 289 286 289 288 289 289 292 295 295 297 299 301 302 304 308 311 312 313 313 313 313 314 314 315 317 315 313 313 314 312 311 309 307 305 302 299
305 298 299 295 297 296 291 291 290 289 289 289 290 290 296 296 297 297 298 300 300 303 306 309 311 311 311 310 309 311 312 313 313 312 310 310 310 309 307 305 304 303 301 300
302 300 299 294 298 297 289 289 290 291 290 290 289 294 297 297 297 299 301 303 302 302 305 307 307 308 308 307 307 309 311 312 311 310 309 308 307 306 305 303 301 300 299 299
296 296 297 295 298 288 295 300 296 293 294 295 296 297 299 300 301 300 303 303 302 301 303 305 308 308 307 306 306 307 309 309 309 308 307 307 306 304 303 301 299 297 296 296
292 295 296 294 292 295 297 299 297 295 294 296 295 299 304 305 302 298 303 304 303 301 303 306 309 310 309 309 308 308 307 308 307 305 305 305 305 303 302 300 299 298 296 293
305 296 293 298 295 294 303 308 309 308 294 301 297 303 306 307 301 301 307 307 306 304 306 307 310 312 311 311 311 309 308 307 306 305 304 304 303 302 300 300 298 297 295 293
304 303 292 292 294 299 306 308 310 297 302 308 307 307 307 304 303 307 309 309 309 308 307 311 311 311 312 312 312 308 307 306 307 305 304 303 302 300 299 298 297 295 294 292
303 303 300 301 298 300 313 310 300 308 309 307 307 308 307 309 310 311 311 312 313 312 312 312 312 312 313 314 313 308 307 309 308 306 304 302 300 299 298 296 295 294 292 290
298 295 298 296 298 309 311 307 306 306 304 305 307 311 313 311 311 313 315 316 316 316 316 316 315 314 314 314 314 310 309 309 307 305 303 301 300 298 297 294 292 291 290 287
295 296 294 297 297 297 300 301 303 305 307 309 310 312 314 312 315 316 318 319 318 318 318 318 317 315 314 315 314 312 311 310 308 305 304 302 300 299 297 294 292 289 287 286
297 303 301 298 301 303 302 303 304 304 308 309 311 313 315 316 317 319 319 320 320 321 321 321 319 317 316 317 316 316 315 313 311 309 307 305 303 301 299 296 294 291 288 286
294 293 295 297 303 303 303 306 306 305 306 310 311 313 317 319 319 320 321 322 323 323 324 322 321 321 320 320 319 319 319 317 314 313 312 311 309 306 304 300 297 294 290 286